Find Starlink 38136

NORAD ID: 100166 Int'l Des: 2026-171 Owner: SPXS Country: US Constellation: starlink operational

当前视图

正在加载3D地球...

About Starlink 38136

Starlink 38136 (NORAD 100166) is a starlink constellation satellite (v2 mini) launched Jul 24, 2026 by SPXS of US. with a mass of 575.00 kg.

即将过境

Passes for default location (London). Set your location on the main map for personalized predictions.

高度历史

Loading altitude history...

两行轨道根数

1 A0166U 26171U 26228.58834224 .00135475 00000-0 89369-3 0 9999
2 A0166 97.2850 260.5852 0002284 88.0914 272.0613 15.75217723 3486
Epoch: Aug 16, 2026 • Age: 14 hours

当前状态

高度 352.9 km
远地点 / 近地点 N/A
速度 7.70 km/s
星下点 61.95°N, 64.39°E
发射日期 Jul 24, 2026
运行时间 23 days
类型 internet

技术详情

分类 Payload
质量 575.00 kg
干质量 530.00 kg
总质量 575.00 kg
长度 0.30 m
直径 4.10 m
跨度 29.00 m
形状 Box + pan
制造商 SPXS
平台类型 Starlink V2MO
阶段状态 In Orbit
所有者/国家 SPXS/US

Most Searched